Year,Month,Day,Hour,Minute,Value (Times are PST for temperature in C)
2016,04,15,00,00,5.10
2016,04,15,00,01,5.10
2016,04,15,00,02,5.10
2016,04,15,00,03,5.10
2016,04,15,00,04,5.10
2016,04,15,00,05,5.00
2016,04,15,00,06,5.00
2016,04,15,00,07,5.00
2016,04,15,00,08,5.00
2016,04,15,00,09,5.00
2016,04,15,00,10,5.00
2016,04,15,00,11,5.00
2016,04,15,00,12,5.10
2016,04,15,00,13,5.10
2016,04,15,00,14,5.00
2016,04,15,00,15,5.00
2016,04,15,00,16,5.00
2016,04,15,00,17,5.00
2016,04,15,00,18,5.00
2016,04,15,00,19,5.00
2016,04,15,00,20,4.90
2016,04,15,00,21,4.90
2016,04,15,00,22,4.90
2016,04,15,00,23,4.90
2016,04,15,00,24,4.90
2016,04,15,00,25,4.90
2016,04,15,00,26,4.90
2016,04,15,00,27,4.90
2016,04,15,00,28,4.90
2016,04,15,00,29,4.90
2016,04,15,00,30,4.80
2016,04,15,00,31,4.80
2016,04,15,00,32,4.80
2016,04,15,00,33,4.80
2016,04,15,00,34,4.80
2016,04,15,00,35,4.80
2016,04,15,00,36,4.80
2016,04,15,00,37,4.70
2016,04,15,00,38,4.70
2016,04,15,00,39,4.70
2016,04,15,00,40,4.70
2016,04,15,00,41,4.70
2016,04,15,00,42,4.70
2016,04,15,00,43,4.60
2016,04,15,00,44,4.60
2016,04,15,00,45,4.60
2016,04,15,00,46,4.60
2016,04,15,00,47,4.60
2016,04,15,00,48,4.60
2016,04,15,00,49,4.60
2016,04,15,00,50,4.60
2016,04,15,00,51,4.60
2016,04,15,00,52,4.50
2016,04,15,00,53,4.50
2016,04,15,00,54,4.50
2016,04,15,00,55,4.50
2016,04,15,00,56,4.50
2016,04,15,00,57,4.50
2016,04,15,00,58,4.50
2016,04,15,00,59,4.40
2016,04,15,01,00,4.40
2016,04,15,01,01,4.40
2016,04,15,01,02,4.40
2016,04,15,01,03,4.40
2016,04,15,01,04,4.40
2016,04,15,01,05,4.40
2016,04,15,01,06,4.30
2016,04,15,01,07,4.30
2016,04,15,01,08,4.30
2016,04,15,01,09,4.30
2016,04,15,01,10,4.30
2016,04,15,01,11,4.30
2016,04,15,01,12,4.30
2016,04,15,01,13,4.30
2016,04,15,01,14,4.30
2016,04,15,01,15,4.30
2016,04,15,01,16,4.30
2016,04,15,01,17,4.30
2016,04,15,01,18,4.30
2016,04,15,01,19,4.30
2016,04,15,01,20,4.20
2016,04,15,01,21,4.20
2016,04,15,01,22,4.20
2016,04,15,01,23,4.20
2016,04,15,01,24,4.20
2016,04,15,01,25,4.20
2016,04,15,01,26,4.20
2016,04,15,01,27,4.20
2016,04,15,01,28,4.20
2016,04,15,01,29,4.20
2016,04,15,01,30,4.10
2016,04,15,01,31,4.10
2016,04,15,01,32,4.10
2016,04,15,01,33,4.10
2016,04,15,01,34,4.10
2016,04,15,01,35,4.10
2016,04,15,01,36,4.10
2016,04,15,01,37,4.10
2016,04,15,01,38,4.10
2016,04,15,01,39,4.10
2016,04,15,01,40,4.10
2016,04,15,01,41,4.10
2016,04,15,01,42,4.10
2016,04,15,01,43,4.10
2016,04,15,01,44,4.10
2016,04,15,01,45,4.10
2016,04,15,01,46,4.20
2016,04,15,01,47,4.20
2016,04,15,01,48,4.20
2016,04,15,01,49,4.20
2016,04,15,01,50,4.20
2016,04,15,01,51,4.20
2016,04,15,01,52,4.20
2016,04,15,01,53,4.10
2016,04,15,01,54,4.10
2016,04,15,01,55,4.10
2016,04,15,01,56,4.10
2016,04,15,01,57,4.10
2016,04,15,01,58,4.10
2016,04,15,01,59,4.10
2016,04,15,02,00,4.20
2016,04,15,02,01,4.20
2016,04,15,02,02,4.20
2016,04,15,02,03,4.20
2016,04,15,02,04,4.20
2016,04,15,02,05,4.20
2016,04,15,02,06,4.20
2016,04,15,02,07,4.20
2016,04,15,02,08,4.20
2016,04,15,02,09,4.20
2016,04,15,02,10,4.10
2016,04,15,02,11,4.10
2016,04,15,02,12,4.10
2016,04,15,02,13,4.10
2016,04,15,02,14,4.10
2016,04,15,02,15,4.10
2016,04,15,02,16,4.10
2016,04,15,02,17,4.10
2016,04,15,02,18,4.10
2016,04,15,02,19,4.10
2016,04,15,02,20,4.20
2016,04,15,02,21,4.20
2016,04,15,02,22,4.20
2016,04,15,02,23,4.20
2016,04,15,02,24,4.20
2016,04,15,02,25,4.30
2016,04,15,02,26,4.30
2016,04,15,02,27,4.30
2016,04,15,02,28,4.30
2016,04,15,02,29,4.40
2016,04,15,02,30,4.40
2016,04,15,02,31,4.40
2016,04,15,02,32,4.40
2016,04,15,02,33,4.40
2016,04,15,02,34,4.40
2016,04,15,02,35,4.40
2016,04,15,02,36,4.40
2016,04,15,02,37,4.50
2016,04,15,02,38,4.50
2016,04,15,02,39,4.50
2016,04,15,02,40,4.60
2016,04,15,02,41,4.60
2016,04,15,02,42,4.60
2016,04,15,02,43,4.60
2016,04,15,02,44,4.70
2016,04,15,02,45,4.70
2016,04,15,02,46,4.70
2016,04,15,02,47,4.80
2016,04,15,02,48,4.80
2016,04,15,02,49,4.80
2016,04,15,02,50,4.80
2016,04,15,02,51,4.80
2016,04,15,02,52,4.80
2016,04,15,02,53,4.80
2016,04,15,02,54,4.80
2016,04,15,02,55,4.80
2016,04,15,02,56,4.80
2016,04,15,02,57,4.80
2016,04,15,02,58,4.90
2016,04,15,02,59,4.80
2016,04,15,03,00,4.90
2016,04,15,03,01,4.90
2016,04,15,03,02,4.90
2016,04,15,03,03,4.90
2016,04,15,03,04,4.90
2016,04,15,03,05,4.90
2016,04,15,03,06,4.90
2016,04,15,03,07,4.90
2016,04,15,03,08,4.90
2016,04,15,03,09,4.90
2016,04,15,03,10,4.90
2016,04,15,03,11,4.90
2016,04,15,03,12,4.90
2016,04,15,03,13,4.90
2016,04,15,03,14,4.90
2016,04,15,03,15,4.90
2016,04,15,03,16,4.90
2016,04,15,03,17,4.90
2016,04,15,03,18,4.90
2016,04,15,03,19,4.90
2016,04,15,03,20,4.90
2016,04,15,03,21,4.90
2016,04,15,03,22,4.90
2016,04,15,03,23,4.90
2016,04,15,03,24,4.90
2016,04,15,03,25,4.90
2016,04,15,03,26,4.90
2016,04,15,03,27,4.90
2016,04,15,03,28,4.90
2016,04,15,03,29,4.90
2016,04,15,03,30,4.90
2016,04,15,03,31,4.90
2016,04,15,03,32,4.90
2016,04,15,03,33,4.90
2016,04,15,03,34,4.90
2016,04,15,03,35,4.90
2016,04,15,03,36,4.90
2016,04,15,03,37,4.90
2016,04,15,03,38,4.90
2016,04,15,03,39,4.90
2016,04,15,03,40,4.90
2016,04,15,03,41,4.90
2016,04,15,03,42,4.90
2016,04,15,03,43,4.90
2016,04,15,03,44,4.90
2016,04,15,03,45,4.90
2016,04,15,03,46,4.90
2016,04,15,03,47,4.90
2016,04,15,03,48,4.90
2016,04,15,03,49,4.90
2016,04,15,03,50,4.90
2016,04,15,03,51,4.90
2016,04,15,03,52,4.90
2016,04,15,03,53,4.90
2016,04,15,03,54,4.80
2016,04,15,03,55,4.80
2016,04,15,03,56,4.80
2016,04,15,03,57,4.80
2016,04,15,03,58,4.80
2016,04,15,03,59,4.80
2016,04,15,04,00,4.70
2016,04,15,04,01,4.70
2016,04,15,04,02,4.70
2016,04,15,04,03,4.70
2016,04,15,04,04,4.70
2016,04,15,04,05,4.70
2016,04,15,04,06,4.70
2016,04,15,04,07,4.70
2016,04,15,04,08,4.70
2016,04,15,04,09,4.60
2016,04,15,04,10,4.60
2016,04,15,04,11,4.60
2016,04,15,04,12,4.60
2016,04,15,04,13,4.60
2016,04,15,04,14,4.60
2016,04,15,04,15,4.60
2016,04,15,04,16,4.60
2016,04,15,04,17,4.60
2016,04,15,04,18,4.60
2016,04,15,04,19,4.60
2016,04,15,04,20,4.60
2016,04,15,04,21,4.60
2016,04,15,04,22,4.60
2016,04,15,04,23,4.60
2016,04,15,04,24,4.60
2016,04,15,04,25,4.60
2016,04,15,04,26,4.60
2016,04,15,04,27,4.60
2016,04,15,04,28,4.60
2016,04,15,04,29,4.60
2016,04,15,04,30,4.60
2016,04,15,04,31,4.60
2016,04,15,04,32,4.60
2016,04,15,04,33,4.60
2016,04,15,04,34,4.60
2016,04,15,04,35,4.60
2016,04,15,04,36,4.60
2016,04,15,04,37,4.60
2016,04,15,04,38,4.60
2016,04,15,04,39,4.60
2016,04,15,04,40,4.60
2016,04,15,04,41,4.60
2016,04,15,04,42,4.60
2016,04,15,04,43,4.60
2016,04,15,04,44,4.60
2016,04,15,04,45,4.60
2016,04,15,04,46,4.60
2016,04,15,04,47,4.60
2016,04,15,04,48,4.60
2016,04,15,04,49,4.60
2016,04,15,04,50,4.60
2016,04,15,04,51,4.60
2016,04,15,04,52,4.60
2016,04,15,04,53,4.60
2016,04,15,04,54,4.70
2016,04,15,04,55,4.70
2016,04,15,04,56,4.70
2016,04,15,04,57,4.70
2016,04,15,04,58,4.70
2016,04,15,04,59,4.70
2016,04,15,05,00,4.70
2016,04,15,05,01,4.80
2016,04,15,05,02,4.80
2016,04,15,05,03,4.80
2016,04,15,05,04,4.80
2016,04,15,05,05,4.80
2016,04,15,05,06,4.80
2016,04,15,05,07,4.80
2016,04,15,05,08,4.80
2016,04,15,05,09,4.80
2016,04,15,05,10,4.80
2016,04,15,05,11,4.90
2016,04,15,05,12,4.90
2016,04,15,05,13,4.90
2016,04,15,05,14,4.90
2016,04,15,05,15,4.90
2016,04,15,05,16,4.90
2016,04,15,05,17,4.90
2016,04,15,05,18,4.90
2016,04,15,05,19,4.90
2016,04,15,05,20,5.00
2016,04,15,05,21,5.00
2016,04,15,05,22,5.00
2016,04,15,05,23,5.00
2016,04,15,05,24,5.00
2016,04,15,05,25,5.10
2016,04,15,05,26,5.10
2016,04,15,05,27,5.10
2016,04,15,05,28,5.10
2016,04,15,05,29,5.10
2016,04,15,05,30,5.10
2016,04,15,05,31,5.10
2016,04,15,05,32,5.10
2016,04,15,05,33,5.20
2016,04,15,05,34,5.20
2016,04,15,05,35,5.20
2016,04,15,05,36,5.20
2016,04,15,05,37,5.30
2016,04,15,05,38,5.30
2016,04,15,05,39,5.30
2016,04,15,05,40,5.30
2016,04,15,05,41,5.40
2016,04,15,05,42,5.40
2016,04,15,05,43,5.40
2016,04,15,05,44,5.40
2016,04,15,05,45,5.40
2016,04,15,05,46,5.40
2016,04,15,05,47,5.40
2016,04,15,05,48,5.40
2016,04,15,05,49,5.40
2016,04,15,05,50,5.40
2016,04,15,05,51,5.40
2016,04,15,05,52,5.40
2016,04,15,05,53,5.40
2016,04,15,05,54,5.40
2016,04,15,05,55,5.40
2016,04,15,05,56,5.40
2016,04,15,05,57,5.40
2016,04,15,05,58,5.50
2016,04,15,05,59,5.50
2016,04,15,06,00,5.50
2016,04,15,06,01,5.50
2016,04,15,06,02,5.60
2016,04,15,06,03,5.60
2016,04,15,06,04,5.60
2016,04,15,06,05,5.60
2016,04,15,06,06,5.60
2016,04,15,06,07,5.60
2016,04,15,06,08,5.70
2016,04,15,06,09,5.70
2016,04,15,06,10,5.70
2016,04,15,06,11,5.70
2016,04,15,06,12,5.70
2016,04,15,06,13,5.80
2016,04,15,06,14,5.80
2016,04,15,06,15,5.80
2016,04,15,06,16,5.80
2016,04,15,06,17,5.90
2016,04,15,06,18,5.90
2016,04,15,06,19,5.90
2016,04,15,06,20,5.90
2016,04,15,06,21,5.90
2016,04,15,06,22,5.90
2016,04,15,06,23,5.90
2016,04,15,06,24,6.00
2016,04,15,06,25,6.00
2016,04,15,06,26,6.00
2016,04,15,06,27,6.00
2016,04,15,06,28,6.00
2016,04,15,06,29,6.10
2016,04,15,06,30,6.10
2016,04,15,06,31,6.10
2016,04,15,06,32,6.10
2016,04,15,06,33,6.10
2016,04,15,06,34,6.00
2016,04,15,06,35,6.00
2016,04,15,06,36,6.00
2016,04,15,06,37,6.00
2016,04,15,06,38,6.00
2016,04,15,06,39,5.90
2016,04,15,06,40,5.90
2016,04,15,06,41,5.90
2016,04,15,06,42,6.00
2016,04,15,06,43,5.90
2016,04,15,06,44,6.00
2016,04,15,06,45,6.00
2016,04,15,06,46,6.00
2016,04,15,06,47,6.00
2016,04,15,06,48,6.00
2016,04,15,06,49,6.00
2016,04,15,06,50,6.10
2016,04,15,06,51,6.10
2016,04,15,06,52,6.10
2016,04,15,06,53,6.10
2016,04,15,06,54,6.10
2016,04,15,06,55,6.20
2016,04,15,06,56,6.20
2016,04,15,06,57,6.20
2016,04,15,06,58,6.20
2016,04,15,06,59,6.30
2016,04,15,07,00,6.30
2016,04,15,07,01,6.30
2016,04,15,07,02,6.30
2016,04,15,07,03,6.30
2016,04,15,07,04,6.40
2016,04,15,07,05,6.40
2016,04,15,07,06,6.40
2016,04,15,07,07,6.40
2016,04,15,07,08,6.50
2016,04,15,07,09,6.50
2016,04,15,07,10,6.50
2016,04,15,07,11,6.60
2016,04,15,07,12,6.60
2016,04,15,07,13,6.60
2016,04,15,07,14,6.70
2016,04,15,07,15,6.70
2016,04,15,07,16,6.70
2016,04,15,07,17,6.70
2016,04,15,07,18,6.70
2016,04,15,07,19,6.70
2016,04,15,07,20,6.70
2016,04,15,07,21,6.80
2016,04,15,07,22,6.80
2016,04,15,07,23,6.80
2016,04,15,07,24,6.80
2016,04,15,07,25,6.80
2016,04,15,07,26,6.80
2016,04,15,07,27,6.90
2016,04,15,07,28,6.90
2016,04,15,07,29,6.90
2016,04,15,07,30,6.90
2016,04,15,07,31,6.90
2016,04,15,07,32,6.90
2016,04,15,07,33,7.00
2016,04,15,07,34,7.00
2016,04,15,07,35,7.00
2016,04,15,07,36,7.00
2016,04,15,07,37,7.00
2016,04,15,07,38,7.00
2016,04,15,07,39,7.10
2016,04,15,07,40,7.10
2016,04,15,07,41,7.10
2016,04,15,07,42,7.10
2016,04,15,07,43,7.10
2016,04,15,07,44,7.10
2016,04,15,07,45,7.10
2016,04,15,07,46,7.20
2016,04,15,07,47,7.20
2016,04,15,07,48,7.20
2016,04,15,07,49,7.20
2016,04,15,07,50,7.20
2016,04,15,07,51,7.30
2016,04,15,07,52,7.30
2016,04,15,07,53,7.30
2016,04,15,07,54,7.30
2016,04,15,07,55,7.40
2016,04,15,07,56,7.40
2016,04,15,07,57,7.40
2016,04,15,07,58,7.40
2016,04,15,07,59,7.50
2016,04,15,08,00,7.50
2016,04,15,08,01,7.50
2016,04,15,08,02,7.60
2016,04,15,08,03,7.60
2016,04,15,08,04,7.60
2016,04,15,08,05,7.60
2016,04,15,08,06,7.70
2016,04,15,08,07,7.70
2016,04,15,08,08,7.70
2016,04,15,08,09,7.70
2016,04,15,08,10,7.70
2016,04,15,08,11,7.80
2016,04,15,08,12,7.80
2016,04,15,08,13,7.80
2016,04,15,08,14,7.80
2016,04,15,08,15,7.80
2016,04,15,08,16,7.80
2016,04,15,08,17,7.80
2016,04,15,08,18,7.80
2016,04,15,08,19,7.80
2016,04,15,08,20,7.80
2016,04,15,08,21,7.80
2016,04,15,08,22,7.80
2016,04,15,08,23,7.80
2016,04,15,08,24,7.80
2016,04,15,08,25,7.90
2016,04,15,08,26,7.90
2016,04,15,08,27,7.90
2016,04,15,08,28,7.90
2016,04,15,08,29,7.90
2016,04,15,08,30,7.90
2016,04,15,08,31,8.00
2016,04,15,08,32,8.00
2016,04,15,08,33,8.00
2016,04,15,08,34,8.10
2016,04,15,08,35,8.10
2016,04,15,08,36,8.10
2016,04,15,08,37,8.10
2016,04,15,08,38,8.10
2016,04,15,08,39,8.20
2016,04,15,08,40,8.20
2016,04,15,08,41,8.20
2016,04,15,08,42,8.20
2016,04,15,08,43,8.20
2016,04,15,08,44,8.20
2016,04,15,08,45,8.30
2016,04,15,08,46,8.30
2016,04,15,08,47,8.30
2016,04,15,08,48,8.30
2016,04,15,08,49,8.30
2016,04,15,08,50,8.30
2016,04,15,08,51,8.40
2016,04,15,08,52,8.40
2016,04,15,08,53,8.40
2016,04,15,08,54,8.50
2016,04,15,08,55,8.50
2016,04,15,08,56,8.60
2016,04,15,08,57,8.60
2016,04,15,08,58,8.60
2016,04,15,08,59,8.60
2016,04,15,09,00,8.60
2016,04,15,09,01,8.60
2016,04,15,09,02,8.70
2016,04,15,09,03,8.70
2016,04,15,09,04,8.70
2016,04,15,09,05,8.80
2016,04,15,09,06,8.80
2016,04,15,09,07,8.80
2016,04,15,09,08,8.90
2016,04,15,09,09,8.90
2016,04,15,09,10,8.90
2016,04,15,09,11,8.90
2016,04,15,09,12,8.90
2016,04,15,09,13,8.90
2016,04,15,09,14,9.00
2016,04,15,09,15,9.00
2016,04,15,09,16,9.00
2016,04,15,09,17,9.00
2016,04,15,09,18,9.00
2016,04,15,09,19,9.10
2016,04,15,09,20,9.10
2016,04,15,09,21,9.10
2016,04,15,09,22,9.20
2016,04,15,09,23,9.20
2016,04,15,09,24,9.20
2016,04,15,09,25,9.20
2016,04,15,09,26,9.20
2016,04,15,09,27,9.20
2016,04,15,09,28,9.10
2016,04,15,09,29,9.10
2016,04,15,09,30,9.10
2016,04,15,09,31,9.10
2016,04,15,09,32,9.10
2016,04,15,09,33,9.10
2016,04,15,09,34,9.10
2016,04,15,09,35,9.20
2016,04,15,09,36,9.20
2016,04,15,09,37,9.20
2016,04,15,09,38,9.20
2016,04,15,09,39,9.20
2016,04,15,09,40,9.20
2016,04,15,09,41,9.20
2016,04,15,09,42,9.30
2016,04,15,09,43,9.30
2016,04,15,09,44,9.30
2016,04,15,09,45,9.30
2016,04,15,09,46,9.30
2016,04,15,09,47,9.40
2016,04,15,09,48,9.40
2016,04,15,09,49,9.40
2016,04,15,09,50,9.50
2016,04,15,09,51,9.50
2016,04,15,09,52,9.50
2016,04,15,09,53,9.50
2016,04,15,09,54,9.50
2016,04,15,09,55,9.50
2016,04,15,09,56,9.50
2016,04,15,09,57,9.60
2016,04,15,09,58,9.60
2016,04,15,09,59,9.60
2016,04,15,10,00,9.70
2016,04,15,10,01,9.80
2016,04,15,10,02,9.80
2016,04,15,10,03,9.90
2016,04,15,10,04,9.90
2016,04,15,10,05,10.00
2016,04,15,10,06,10.00
2016,04,15,10,07,10.00
2016,04,15,10,08,10.00
2016,04,15,10,09,10.00
2016,04,15,10,10,10.10
2016,04,15,10,11,10.10
2016,04,15,10,12,10.20
2016,04,15,10,13,10.20
2016,04,15,10,14,10.30
2016,04,15,10,15,10.30
2016,04,15,10,16,10.30
2016,04,15,10,17,10.30
2016,04,15,10,18,10.30
2016,04,15,10,19,10.40
2016,04,15,10,20,10.40
2016,04,15,10,21,10.40
2016,04,15,10,22,10.50
2016,04,15,10,23,10.50
2016,04,15,10,24,10.50
2016,04,15,10,25,10.50
2016,04,15,10,26,10.60
2016,04,15,10,27,10.60
2016,04,15,10,28,10.60
2016,04,15,10,29,10.60
2016,04,15,10,30,10.70
2016,04,15,10,31,10.70
2016,04,15,10,32,10.80
2016,04,15,10,33,10.80
2016,04,15,10,34,10.80
2016,04,15,10,35,10.80
2016,04,15,10,36,10.80
2016,04,15,10,37,10.80
2016,04,15,10,38,10.90
2016,04,15,10,39,10.90
2016,04,15,10,40,10.90
2016,04,15,10,41,10.90
2016,04,15,10,42,10.90
2016,04,15,10,43,10.90
2016,04,15,10,44,10.90
2016,04,15,10,45,10.90
2016,04,15,10,46,10.90
2016,04,15,10,47,10.90
2016,04,15,10,48,10.90
2016,04,15,10,49,10.90
2016,04,15,10,50,10.90
2016,04,15,10,51,10.90
2016,04,15,10,52,10.90
2016,04,15,10,53,10.90
2016,04,15,10,54,10.90
2016,04,15,10,55,10.90
2016,04,15,10,56,10.90
2016,04,15,10,57,10.90
2016,04,15,10,58,11.00
2016,04,15,10,59,11.00
2016,04,15,11,00,11.00
2016,04,15,11,01,11.00
2016,04,15,11,02,11.00
2016,04,15,11,03,11.00
2016,04,15,11,04,11.00
2016,04,15,11,05,11.00
2016,04,15,11,06,11.10
2016,04,15,11,07,11.10
2016,04,15,11,08,11.10
2016,04,15,11,09,11.20
2016,04,15,11,10,11.20
2016,04,15,11,11,11.20
2016,04,15,11,12,11.20
2016,04,15,11,13,11.20
2016,04,15,11,14,11.20
2016,04,15,11,15,11.20
2016,04,15,11,16,11.30
2016,04,15,11,17,11.40
2016,04,15,11,18,11.40
2016,04,15,11,19,11.50
2016,04,15,11,20,11.50
2016,04,15,11,21,11.50
2016,04,15,11,22,11.50
2016,04,15,11,23,11.50
2016,04,15,11,24,11.50
2016,04,15,11,25,11.60
2016,04,15,11,26,11.60
2016,04,15,11,27,11.70
2016,04,15,11,28,11.70
2016,04,15,11,29,11.80
2016,04,15,11,30,11.90
2016,04,15,11,31,11.90
2016,04,15,11,32,12.00
2016,04,15,11,33,12.00
2016,04,15,11,34,12.10
2016,04,15,11,35,12.10
2016,04,15,11,36,12.10
2016,04,15,11,37,12.10
2016,04,15,11,38,12.10
2016,04,15,11,39,12.10
2016,04,15,11,40,12.20
2016,04,15,11,41,12.20
2016,04,15,11,42,12.30
2016,04,15,11,43,12.30
2016,04,15,11,44,12.30
2016,04,15,11,45,12.30
2016,04,15,11,46,12.30
2016,04,15,11,47,12.30
2016,04,15,11,48,12.30
2016,04,15,11,49,12.30
2016,04,15,11,50,12.30
2016,04,15,11,51,12.30
2016,04,15,11,52,12.30
2016,04,15,11,53,12.30
2016,04,15,11,54,12.30
2016,04,15,11,55,12.30
2016,04,15,11,56,12.30
2016,04,15,11,57,12.40
2016,04,15,11,58,12.40
2016,04,15,11,59,12.40
2016,04,15,12,00,12.40
2016,04,15,12,01,12.40
2016,04,15,12,02,12.40
2016,04,15,12,03,12.40
2016,04,15,12,04,12.30
2016,04,15,12,05,12.30
2016,04,15,12,06,12.30
2016,04,15,12,07,12.30
2016,04,15,12,08,12.30
2016,04,15,12,09,12.30
2016,04,15,12,10,12.30
2016,04,15,12,11,12.30
2016,04,15,12,12,12.30
2016,04,15,12,13,12.30
2016,04,15,12,14,12.40
2016,04,15,12,15,12.50
2016,04,15,12,16,12.60
2016,04,15,12,17,12.60
2016,04,15,12,18,12.70
2016,04,15,12,19,12.80
2016,04,15,12,20,12.80
2016,04,15,12,21,12.90
2016,04,15,12,22,12.90
2016,04,15,12,23,12.90
2016,04,15,12,24,13.00
2016,04,15,12,25,13.00
2016,04,15,12,26,13.10
2016,04,15,12,27,13.10
2016,04,15,12,28,13.10
2016,04,15,12,29,13.20
2016,04,15,12,30,13.20
2016,04,15,12,31,13.20
2016,04,15,12,32,13.30
2016,04,15,12,33,13.30
2016,04,15,12,34,13.30
2016,04,15,12,35,13.40
2016,04,15,12,37,13.40
2016,04,15,12,38,13.30
2016,04,15,12,39,13.30
2016,04,15,12,40,13.30
2016,04,15,12,41,13.30
2016,04,15,12,42,13.30
2016,04,15,12,43,13.30
2016,04,15,12,44,13.20
2016,04,15,12,45,13.20
2016,04,15,12,46,13.20
2016,04,15,12,47,13.20
2016,04,15,12,48,13.20
2016,04,15,12,49,13.20
2016,04,15,12,50,13.20
2016,04,15,12,51,13.20
2016,04,15,12,52,13.20
2016,04,15,12,53,13.20
2016,04,15,12,54,13.20
2016,04,15,12,55,13.30
2016,04,15,12,56,13.30
2016,04,15,12,57,13.30
2016,04,15,12,58,13.30
2016,04,15,12,59,13.30
2016,04,15,13,00,13.30
2016,04,15,13,01,13.30
2016,04,15,13,02,13.30
2016,04,15,13,03,13.20
2016,04,15,13,04,13.20
2016,04,15,13,05,13.20
2016,04,15,13,06,13.10
2016,04,15,13,07,13.10
2016,04,15,13,08,13.10
2016,04,15,13,09,13.10
2016,04,15,13,10,13.00
2016,04,15,13,11,13.00
2016,04,15,13,12,13.00
2016,04,15,13,13,12.90
2016,04,15,13,14,12.90
2016,04,15,13,15,12.90
2016,04,15,13,16,12.90
2016,04,15,13,17,13.00
2016,04,15,13,18,13.00
2016,04,15,13,19,13.00
2016,04,15,13,20,13.10
2016,04,15,13,21,13.10
2016,04,15,13,22,13.20
2016,04,15,13,23,13.20
2016,04,15,13,24,13.20
2016,04,15,13,25,13.20
2016,04,15,13,26,13.20
2016,04,15,13,27,13.30
2016,04,15,13,28,13.30
2016,04,15,13,29,13.30
2016,04,15,13,30,13.30
2016,04,15,13,31,13.40
2016,04,15,13,32,13.40
2016,04,15,13,33,13.40
2016,04,15,13,34,13.50
2016,04,15,13,35,13.50
2016,04,15,13,36,13.50
2016,04,15,13,37,13.40
2016,04,15,13,38,13.40
2016,04,15,13,39,13.50
2016,04,15,13,40,13.50
2016,04,15,13,41,13.50
2016,04,15,13,42,13.60
2016,04,15,13,43,13.50
2016,04,15,13,44,13.50
2016,04,15,13,45,13.50
2016,04,15,13,46,13.60
2016,04,15,13,47,13.60
2016,04,15,13,48,13.60
2016,04,15,13,49,13.60
2016,04,15,13,50,13.60
2016,04,15,13,51,13.60
2016,04,15,13,52,13.50
2016,04,15,13,53,13.40
2016,04,15,13,54,13.40
2016,04,15,13,55,13.40
2016,04,15,13,56,13.40
2016,04,15,13,57,13.40
2016,04,15,13,58,13.40
2016,04,15,13,59,13.50
2016,04,15,14,00,13.40
2016,04,15,14,01,13.50
2016,04,15,14,02,13.50
2016,04,15,14,03,13.50
2016,04,15,14,04,13.50
2016,04,15,14,05,13.50
2016,04,15,14,06,13.60
2016,04,15,14,07,13.60
2016,04,15,14,08,13.50
2016,04,15,14,09,13.50
2016,04,15,14,10,13.50
2016,04,15,14,11,13.50
2016,04,15,14,12,13.50
2016,04,15,14,13,13.50
2016,04,15,14,14,13.60
2016,04,15,14,15,13.60
2016,04,15,14,16,13.60
2016,04,15,14,17,13.60
2016,04,15,14,18,13.60
2016,04,15,14,19,13.60
2016,04,15,14,20,13.70
2016,04,15,14,21,13.70
2016,04,15,14,22,13.60
2016,04,15,14,23,13.60
2016,04,15,14,24,13.70
2016,04,15,14,25,13.70
2016,04,15,14,26,13.70
2016,04,15,14,27,13.70
2016,04,15,14,28,13.70
2016,04,15,14,29,13.70
2016,04,15,14,30,13.80
2016,04,15,14,31,13.80
2016,04,15,14,32,13.80
2016,04,15,14,33,13.80
2016,04,15,14,34,13.90
2016,04,15,14,35,13.90
2016,04,15,14,36,14.00
2016,04,15,14,37,14.10
2016,04,15,14,38,14.20
2016,04,15,14,39,14.20
2016,04,15,14,40,14.20
2016,04,15,14,41,14.30
2016,04,15,14,42,14.30
2016,04,15,14,43,14.20
2016,04,15,14,44,14.30
2016,04,15,14,45,14.30
2016,04,15,14,46,14.30
2016,04,15,14,47,14.30
2016,04,15,14,48,14.30
2016,04,15,14,49,14.30
2016,04,15,14,50,14.30
2016,04,15,14,51,14.30
2016,04,15,14,52,14.30
2016,04,15,14,53,14.30
2016,04,15,14,54,14.30
2016,04,15,14,55,14.30
2016,04,15,14,56,14.30
2016,04,15,14,57,14.30
2016,04,15,14,58,14.30
2016,04,15,14,59,14.40
2016,04,15,15,00,14.40
2016,04,15,15,01,14.40
2016,04,15,15,02,14.40
2016,04,15,15,03,14.30
2016,04,15,15,04,14.30
2016,04,15,15,05,14.30
2016,04,15,15,06,14.20
2016,04,15,15,07,14.20
2016,04,15,15,08,14.20
2016,04,15,15,09,14.20
2016,04,15,15,10,14.20
2016,04,15,15,11,14.20
2016,04,15,15,12,14.20
2016,04,15,15,13,14.20
2016,04,15,15,14,14.10
2016,04,15,15,15,14.20
2016,04,15,15,16,14.10
2016,04,15,15,17,14.10
2016,04,15,15,18,14.10
2016,04,15,15,19,14.00
2016,04,15,15,20,14.00
2016,04,15,15,21,14.10
2016,04,15,15,22,14.10
2016,04,15,15,23,14.00
2016,04,15,15,24,14.00
2016,04,15,15,25,14.00
2016,04,15,15,26,14.00
2016,04,15,15,27,14.10
2016,04,15,15,28,14.10
2016,04,15,15,29,14.10
2016,04,15,15,30,14.10
2016,04,15,15,31,14.20
2016,04,15,15,32,14.20
2016,04,15,15,33,14.20
2016,04,15,15,34,14.20
2016,04,15,15,35,14.20
2016,04,15,15,36,14.20
2016,04,15,15,37,14.20
2016,04,15,15,38,14.20
2016,04,15,15,39,14.20
2016,04,15,15,40,14.10
2016,04,15,15,41,14.00
2016,04,15,15,42,14.00
2016,04,15,15,43,14.00
2016,04,15,15,44,14.00
2016,04,15,15,45,14.00
2016,04,15,15,46,14.00
2016,04,15,15,47,14.00
2016,04,15,15,48,14.00
2016,04,15,15,49,14.10
2016,04,15,15,50,14.10
2016,04,15,15,51,14.10
2016,04,15,15,52,14.10
2016,04,15,15,53,14.20
2016,04,15,15,54,14.20
2016,04,15,15,55,14.20
2016,04,15,15,56,14.20
2016,04,15,15,57,14.20
2016,04,15,15,58,14.30
2016,04,15,15,59,14.30
2016,04,15,16,00,14.30
2016,04,15,16,01,14.30
2016,04,15,16,02,14.30
2016,04,15,16,03,14.30
2016,04,15,16,04,14.30
2016,04,15,16,05,14.40
2016,04,15,16,06,14.40
2016,04,15,16,07,14.40
2016,04,15,16,08,14.40
2016,04,15,16,09,14.50
2016,04,15,16,10,14.50
2016,04,15,16,11,14.50
2016,04,15,16,12,14.60
2016,04,15,16,13,14.60
2016,04,15,16,14,14.70
2016,04,15,16,15,14.70
2016,04,15,16,16,14.80
2016,04,15,16,17,14.80
2016,04,15,16,18,14.80
2016,04,15,16,19,14.80
2016,04,15,16,20,14.80
2016,04,15,16,21,14.70
2016,04,15,16,22,14.60
2016,04,15,16,23,14.60
2016,04,15,16,24,14.60
2016,04,15,16,25,14.60
2016,04,15,16,26,14.60
2016,04,15,16,27,14.60
2016,04,15,16,28,14.60
2016,04,15,16,29,14.60
2016,04,15,16,30,14.60
2016,04,15,16,31,14.60
2016,04,15,16,32,14.60
2016,04,15,16,33,14.60
2016,04,15,16,34,14.60
2016,04,15,16,35,14.60
2016,04,15,16,36,14.60
2016,04,15,16,37,14.60
2016,04,15,16,38,14.60
2016,04,15,16,39,14.60
2016,04,15,16,40,14.60
2016,04,15,16,41,14.60
2016,04,15,16,42,14.60
2016,04,15,16,43,14.60
2016,04,15,16,44,14.60
2016,04,15,16,45,14.60
2016,04,15,16,46,14.60
2016,04,15,16,47,14.60
2016,04,15,16,48,14.60
2016,04,15,16,49,14.60
2016,04,15,16,50,14.60
2016,04,15,16,51,14.50
2016,04,15,16,52,14.50
2016,04,15,16,53,14.50
2016,04,15,16,54,14.40
2016,04,15,16,55,14.40
2016,04,15,16,56,14.30
2016,04,15,16,57,14.30
2016,04,15,16,58,14.30
2016,04,15,16,59,14.30
2016,04,15,17,00,14.30
2016,04,15,17,01,14.20
2016,04,15,17,02,14.20
2016,04,15,17,03,14.30
2016,04,15,17,04,14.20
2016,04,15,17,05,14.20
2016,04,15,17,06,14.20
2016,04,15,17,07,14.10
2016,04,15,17,08,14.10
2016,04,15,17,09,14.10
2016,04,15,17,10,14.10
2016,04,15,17,11,14.10
2016,04,15,17,12,14.10
2016,04,15,17,13,14.10
2016,04,15,17,14,14.20
2016,04,15,17,15,14.20
2016,04,15,17,16,14.10
2016,04,15,17,17,14.10
2016,04,15,17,18,14.20
2016,04,15,17,19,14.20
2016,04,15,17,20,14.20
2016,04,15,17,21,14.20
2016,04,15,17,22,14.20
2016,04,15,17,23,14.20
2016,04,15,17,24,14.20
2016,04,15,17,25,14.20
2016,04,15,17,26,14.20
2016,04,15,17,27,14.20
2016,04,15,17,28,14.20
2016,04,15,17,29,14.20
2016,04,15,17,30,14.10
2016,04,15,17,31,14.10
2016,04,15,17,32,14.00
2016,04,15,17,33,14.00
2016,04,15,17,34,14.00
2016,04,15,17,35,14.00
2016,04,15,17,36,14.00
2016,04,15,17,37,13.90
2016,04,15,17,38,13.90
2016,04,15,17,39,13.90
2016,04,15,17,40,13.90
2016,04,15,17,41,13.80
2016,04,15,17,42,13.80
2016,04,15,17,43,13.80
2016,04,15,17,44,13.80
2016,04,15,17,45,13.70
2016,04,15,17,46,13.70